NOAA 16 DEB, 41409

Orbit data source: Space-Track

NOAA 16 DEB, 41409 is space debris in SSO originally from a launch on Thu, 21 Sep 2000 UTC launched from the Air Force Western Test Range (AFWTR). Debris objects in space refer to the collection of defunct objects orbiting the Earth. Examples of debris include non-operational satellites, rocket bodies, and fragments generated from explosions, collisions, or faulty payload assembly.

Loading next visibility...
Identifier
41409, 2000-055KN
Orbit
SSO
Country
Flag of USUS
Related business
Manufacturer
Unknown
Mission
Spacecraft
Bus & Motor
Unknown
Mass
Unknown
Launch date (UTC)
2000-09-21 (26 years ago)
Launch vehicle
Unknown
Launch site
Air Force Western Test Range (AFWTR)
Object type
Payload
Rocket body
Debris
Shape & HBR
Unknown shape, 0.1 m
Radar Cross Section
Medium (>0.1 m² and <1 m²)

Expand to show TLE details & history
Last TLE update: 1 day ago

TLE from 1 day ago
0 NOAA 16 DEB
1 41409U 00055KN  26262.20799257  .00003751  00000-0  10901-2 0  9996
2 41409  98.6372 351.1592 0023018 276.8396  83.0176 14.44746850549541
Epoch: 2026-09-19T04:59Z
TLE epoch observation values (Epoch: 2026-09-19T04:59:30.558Z)
Latitude
0.00005°
Longitude
-81.83796°
Altitude
743.853 km
Speed
7.484 km/s
True Right ascension
23h 24m 38s
True Declination
0° 00' 00"
Sunlit
Object was in full shadow at epoch
Visualization orbit readout
Latitude
Unknown
Longitude
Unknown
Altitude
Unknown
Speed
Unknown
Apparent Right ascension
Unknown
Apparent Declination
Unknown
Sunlit
N/A
Visualization observer readout
Local Sidereal Time
06:58:19
Azimuth
Unknown
Elevation
Unknown
Doppler factor
Unknown
Orbital elements
Apogee altitude
756.364 km
Perigee altitude
723.595 km
Semi-major axis
7,118.117 km
Eccentricity
0.0023
Inclination
98.6372°
RAAN
351.1592°
Arg. of periapsis
276.8396°
True anomaly
83.2795°
Mean anomaly
83.0176°
Eccentric anomaly
83.14854°
Mean motion
3.61406 °/min
Orbital period
99.61 mins
BSTAR
0.0010901
Loading maneuver chart data...
Computing Atmospheric mass density...
Loading historical data...
Loading historical data...
Loading historical data...
Loading historical data...
Loading historical data...
Loading historical data...
Loading historical data...

Documentation

Showing up to 5 results
|